Burnet, TX

9:16 PM CST on December 14, 2017 (GMT -0600)
Burnet Municipal-Craddock

Weather History for KBMQ - July, 2013

Change the Weather History Date:

Wednesday, July 17, 2013

  Actual Average Record
Temperature  
Mean Temperature 78 °F -  
Max Temperature 86 °F 92 °F 100 °F (2006)
Min Temperature 71 °F 70 °F 71 °F (1997)
Cooling Degree Days 12    
Growing Degree Days 28 (Base 50)    
Moisture  
Dew Point 70 °F    
Average Humidity 90    
Maximum Humidity 97    
Minimum Humidity 57    
Precipitation  
Precipitation 1.02 in - - ()
Sea Level Pressure  
Sea Level Pressure 30.18 in    
Wind  
Wind Speed 6 mph (East)    
Max Wind Speed 22 mph    
Max Gust Speed 32 mph    
Visibility 7 miles    
Events Fog , Rain , Thunderstorm    
Averages and records for this station are not official NWS values.
T = Trace of Precipitation, MM = Missing Value Source: NWS Daily Summary

Daily Weather History Graph

Daily Weather History Graph

Search for Another Location

Airport or City:

Trip Planner

Search our weather history database for the weather conditions in past years. The results will help you decide how hot, cold, wet, or windy it might be!

Date:

Astronomy

Jul. 17, 2013 Rise Set
Actual Time 6:41 AM CDT 8:36 PM CDT
Civil Twilight 6:14 AM CDT 9:03 PM CDT
Nautical Twilight 5:42 AM CDT 9:35 PM CDT
Astronomical Twilight 5:07 AM CDT 10:10 PM CDT
Moon 3:32 PM CDT (7/17) 1:42 AM CDT (7/17)
Length of Visible Light 14h 48m
Length of Day
13h 54m
Waxing Gibbous, 67% of the Moon is Illuminated
Jul 17
Waxing Gibbous
Jul 22
Full
Jul 29
Last Quarter
Aug 6
New
Aug 14
First Quarter

Hourly Weather History & Observations

Time (CDT) Temp. Heat Index Dew Point Humidity Pressure Visibility Wind Dir Wind Speed Gust Speed Precip Events Conditions
12:53 AM 71.1 °F - 69.1 °F 93% 30.14 in 10.0 mi ENE 5.8 mph - N/A   Mostly Cloudy
1:53 AM 71.1 °F - 69.1 °F 93% 30.13 in 10.0 mi East 3.5 mph - N/A   Overcast
2:53 AM 72.0 °F - 69.1 °F 91% 30.13 in 10.0 mi Calm Calm - N/A   Overcast
3:37 AM 71.1 °F - 69.1 °F 93% 30.18 in 10.0 mi ENE 4.6 mph - N/A   Mostly Cloudy
3:53 AM 71.1 °F - 69.1 °F 93% 30.12 in 10.0 mi ENE 6.9 mph - N/A   Overcast
4:16 AM 71.1 °F - 69.1 °F 93% 30.17 in 9.0 mi ENE 8.1 mph - N/A   Mostly Cloudy
4:27 AM 71.1 °F - 69.1 °F 93% 30.17 in 9.0 mi ENE 8.1 mph - N/A   Mostly Cloudy
4:48 AM 71.6 °F - 69.8 °F 94% 30.18 in 8.0 mi ENE 6.9 mph - 0.00 in Rain Light Rain
4:53 AM 71.1 °F - 69.1 °F 93% 30.13 in 9.0 mi ENE 8.1 mph - 0.00 in Rain Light Rain
5:29 AM 71.1 °F - 69.1 °F 93% 30.18 in 8.0 mi ENE 6.9 mph - 0.00 in   Overcast
5:53 AM 71.1 °F - 69.1 °F 93% 30.13 in 9.0 mi NE 6.9 mph - 0.00 in   Overcast
6:27 AM 71.1 °F - 69.1 °F 93% 30.19 in 7.0 mi ENE 8.1 mph - N/A   Overcast
6:53 AM 71.1 °F - 70.0 °F 96% 30.15 in 2.5 mi ENE 5.8 mph - N/A   Overcast
7:04 AM 71.1 °F - 70.0 °F 96% 30.20 in 4.0 mi ENE 4.6 mph - N/A   Overcast
7:27 AM 71.1 °F - 70.0 °F 96% 30.21 in 1.8 mi ENE 6.9 mph - N/A   Overcast
7:37 AM 71.1 °F - 70.0 °F 96% 30.21 in 1.2 mi East 5.8 mph - 0.00 in Rain Light Rain
7:48 AM 71.6 °F - 69.8 °F 94% 30.21 in 1.5 mi East 4.6 mph - 0.00 in   Overcast
7:53 AM 72.0 °F - 70.0 °F 93% 30.17 in 1.8 mi East 5.8 mph - 0.00 in   Overcast
8:04 AM 72.0 °F - 71.1 °F 97% 30.22 in 2.0 mi East 3.5 mph - 0.00 in Rain Light Rain
8:19 AM 72.0 °F - 71.1 °F 97% 30.22 in 3.0 mi ENE 4.6 mph - 0.00 in Rain Light Rain
8:29 AM 72.0 °F - 71.1 °F 97% 30.22 in 3.0 mi ENE 3.5 mph - 0.00 in Rain Light Rain
8:53 AM 73.0 °F - 71.1 °F 93% 30.18 in 9.0 mi ESE 4.6 mph - 0.00 in Rain Light Rain
8:59 AM 73.0 °F - 71.1 °F 93% 30.22 in 7.0 mi East 4.6 mph - 0.00 in Rain Light Rain
9:29 AM 73.0 °F - 71.1 °F 93% 30.23 in 10.0 mi ESE 5.8 mph - 0.00 in Rain Light Rain
9:53 AM 73.9 °F - 71.1 °F 91% 30.19 in 10.0 mi East 4.6 mph - 0.00 in Rain Light Rain
10:19 AM 73.9 °F - 71.1 °F 91% 30.24 in 10.0 mi East 8.1 mph - 0.00 in Rain Light Rain
10:30 AM 75.0 °F - 71.1 °F 87% 30.24 in 10.0 mi East 5.8 mph - 0.00 in Rain Light Rain
10:53 AM 75.9 °F - 71.1 °F 85% 30.20 in 10.0 mi East 3.5 mph - 0.00 in   Mostly Cloudy
11:07 AM 75.9 °F - 72.0 °F 87% 30.24 in 10.0 mi SSE 3.5 mph - N/A   Overcast
11:37 AM 80.1 °F 83.2 °F 70.0 °F 71% 30.23 in 10.0 mi ESE 6.9 mph - N/A   Scattered Clouds
11:53 AM 79.0 °F - 71.1 °F 77% 30.19 in 10.0 mi East 4.6 mph - N/A   Scattered Clouds
12:53 PM 81.0 °F 84.4 °F 70.0 °F 69% 30.17 in 10.0 mi East 8.1 mph - N/A   Mostly Cloudy
1:53 PM 82.9 °F 86.5 °F 69.1 °F 63% 30.15 in 10.0 mi East 11.5 mph - N/A   Partly Cloudy
2:53 PM 84.9 °F 88.2 °F 68.0 °F 57% 30.13 in 10.0 mi ESE 9.2 mph - N/A   Scattered Clouds
3:53 PM 82.9 °F 87.0 °F 70.0 °F 65% 30.12 in 10.0 mi East 12.7 mph 19.6 mph N/A   Mostly Cloudy
4:53 PM 82.9 °F 87.0 °F 70.0 °F 65% 30.11 in 10.0 mi East 10.4 mph - N/A   Scattered Clouds
5:11 PM 80.1 °F 82.9 °F 69.1 °F 69% 30.17 in 10.0 mi East 15.0 mph 24.2 mph N/A Thunderstorm Mostly Cloudy
5:26 PM 75.0 °F - 70.0 °F 84% 30.20 in 1.0 mi East 21.9 mph 32.2 mph 0.12 in Rain , Thunderstorm Rain
5:29 PM 72.0 °F - 70.0 °F 93% 30.20 in 0.5 mi East 17.3 mph 32.2 mph 0.25 in Fog , Rain , Thunderstorm Heavy Rain
5:33 PM 72.0 °F - 70.0 °F 93% 30.21 in 0.2 mi ESE 16.1 mph 32.2 mph 0.40 in Fog , Rain , Thunderstorm Heavy Rain
5:40 PM 72.0 °F - 70.0 °F 93% 30.21 in 0.2 mi SE 10.4 mph 25.3 mph 0.60 in Fog , Rain , Thunderstorm Heavy Rain
5:53 PM 71.1 °F - 69.1 °F 93% 30.16 in 0.5 mi SSE 8.1 mph 18.4 mph 0.94 in Fog , Rain , Thunderstorm Heavy Rain
6:05 PM 71.1 °F - 69.1 °F 93% 30.20 in 1.5 mi SSE 6.9 mph - 0.06 in Rain , Thunderstorm Rain
6:08 PM 71.1 °F - 69.1 °F 93% 30.19 in 2.0 mi SSE 4.6 mph - 0.06 in Rain Light Rain
6:12 PM 71.1 °F - 70.0 °F 96% 30.19 in 3.0 mi Variable 5.8 mph - 0.06 in Rain Light Rain
6:53 PM 71.1 °F - 70.0 °F 96% 30.14 in 4.0 mi SSE 5.8 mph - 0.08 in Rain Light Rain
7:53 PM 71.1 °F - 70.0 °F 96% 30.15 in 7.0 mi South 5.8 mph - 0.00 in Rain Light Rain
8:07 PM 71.1 °F - 70.0 °F 96% 30.20 in 9.0 mi SSE 3.5 mph - 0.00 in Rain Light Rain
8:26 PM 71.1 °F - 70.0 °F 96% 30.21 in 10.0 mi East 3.5 mph - 0.00 in   Mostly Cloudy
8:53 PM 71.1 °F - 70.0 °F 96% 30.17 in 10.0 mi ESE 4.6 mph - 0.00 in   Mostly Cloudy
9:01 PM 71.1 °F - 70.0 °F 96% 30.22 in 10.0 mi ESE 3.5 mph - N/A   Scattered Clouds
9:24 PM 72.0 °F - 70.0 °F 93% 30.21 in 10.0 mi East 3.5 mph - N/A   Mostly Cloudy
9:41 PM 71.1 °F - 70.0 °F 96% 30.22 in 10.0 mi ENE 3.5 mph - N/A   Mostly Cloudy
9:53 PM 72.0 °F - 70.0 °F 93% 30.17 in 10.0 mi East 3.5 mph - N/A   Overcast
10:12 PM 72.0 °F - 69.1 °F 91% 30.22 in 10.0 mi Calm Calm - N/A   Mostly Cloudy
10:53 PM 72.0 °F - 69.1 °F 91% 30.17 in 10.0 mi Calm Calm - N/A   Clear
11:53 PM 71.1 °F - 69.1 °F 93% 30.17 in 10.0 mi Calm Calm - N/A   Clear